Regional Weather Roundup
Issued by NWS

Home | Current Version | Previous Version | Text Only | Print | Product List | Glossary Off
Versions: 1 2 3 4 5 6 7 8 9 10 11 12 13 14 15 16 17 18 19 20 21 22 23 24 25 26 27 28 29 30 31 32 33 34 35 36 37 38 39 40 41 42 43 44 45 46 47 48 49 50

000
ASUS43 KLOT 270012
RWRIL

ILLINOIS REGIONAL WEATHER ROUNDUP
NATIONAL WEATHER SERVICE CHICAGO/ROMEOVILLE IL
700 PM CDT THU MAR 26 2015

NOTE: "FAIR" INDICATES FEW OR NO CLOUDS BELOW 12,000 FEET WITH NO
SIGNIFICANT WEATHER AND/OR OBSTRUCTIONS TO VISIBILITY.

* THESE STATIONS ARE NOT UNDER NWS QUALITY CONTROL. THEY ALSO MAY NOT
  REPORT WEATHER SUCH AS PRECIPITATION OR FOG.

ILZ001-002-007-009-015-016-024-270100-
NORTHWEST ILLINOIS

CITY           SKY/WX    TMP DP  RH WIND       PRES   REMARKS
MOLINE         CLEAR     38  23  55 NW17      30.05R WCI  28
6HR MIN TEMP:  38; 6HR MAX TEMP:  47;

STERLING*      PTCLDY    37  23  56 N14G20    30.03R WCI  29
SAVANNA*       CLEAR     37  21  52 NW15      30.05R WCI  27
$$

ILZ003-004-008-010-011-017-018-270100-
NORTH CENTRAL ILLINOIS

CITY           SKY/WX    TMP DP  RH WIND       PRES   REMARKS
ROCKFORD       CLOUDY    36  19  50 N15       30.04S WCI  27
6HR MIN TEMP:  36; 6HR MAX TEMP:  40;

FREEPORT*      CLOUDY    33  21  60 NW14      30.06R WCI  24
ROCHELLE*      CLOUDY    36  25  64 N14       30.02S WCI  27
DE KALB*       CLOUDY    34  24  65 N13       30.01S WCI  25
PERU*          MOCLDY    40  27  60 N9        30.02R
$$

ILZ005-006-012>014-019>023-270100-
NORTHEAST ILLINOIS

CITY           SKY/WX    TMP DP  RH WIND       PRES   REMARKS
CHICAGO-OHARE  CLOUDY    37  21  52 NW12      30.00S WCI  29
6HR MIN TEMP:  37; 6HR MAX TEMP:  42;

CHICAGO-MIDWAY MOCLDY    40  22  48 NW12      30.00S
6HR MIN TEMP:  40; 6HR MAX TEMP:  46;

AURORA         CLOUDY    37  24  59 NW13      30.01S WCI  29
6HR MIN TEMP:  37; 6HR MAX TEMP:  43;

LANSING*       CLOUDY    37  23  57 NE7       30.00R WCI  31
JOLIET*        MOCLDY    39  23  53 N7        30.01S WCI  34
WAUKEGAN       CLOUDY    35  22  58 NW5       30.00S WCI  31
6HR MIN TEMP:  35; 6HR MAX TEMP:  40;

DUPAGE AIRPORT CLOUDY    37  23  56 N13       30.00S WCI  29
6HR MIN TEMP:  37; 6HR MAX TEMP:  42;

KANKAKEE*      CLEAR     39  24  55 NW13      30.01R WCI  32
WHEELING       CLOUDY    36  22  56 NW10      30.02S WCI  28
6HR MIN TEMP:  36; 6HR MAX TEMP:  43;

MORRIS*        PTCLDY    37  26  62 N7        30.00S WCI  32
ROMEOVILLE*    MOCLDY    37  22  54 N9        30.00F WCI  30
NORTHERLY ISL    N/A     37  26  65 W3          N/A
$$

LMZ740>746-270100-
SOUTHERN LAKE MICHIGAN

STATION/POSITION SKY/WX   TEMP    WIND        PRES    VSBY  WAVE
                          AIR SEA DIR/SP/G                  HT/PER
                          (F)     (DEG/KT/KT) (MB)    (MI)  (FT/S)
HARRISON CRIB              35      40/  5/  6   N/A
BURNHAM HARBOR             38     330/  7       N/A
CALUMET HARBOR             36      20/  6/  7 1014.8R
BURNS HARBOR               35      30/  6/  7 1016.3S
MICHIGAN CITY              34     350/  7/  8   N/A
$$

ILZ025>027-034>036-040-047-049-050-058-095>099-270100-
WEST-CENTRAL ILLINOIS

CITY           SKY/WX    TMP DP  RH WIND       PRES   REMARKS
QUINCY         CLEAR     45  25  45 NW13      30.04S
GALESBURG*     CLEAR     40  26  55 N14G20    30.03R
MACOMB*        CLEAR     43  26  51 NW13      30.05R
JACKSONVILLE*  PTCLDY    47  29  49 NW10      30.03R
PITTSFIELD*    CLEAR     46  28  47 NW9       30.05S
$$

ILZ028>032-037-038-041>044-048-051>054-059>061-270100-
CENTRAL ILLINOIS

CITY           SKY/WX    TMP DP  RH WIND       PRES   REMARKS
PONTIAC        MOCLDY    41  30  64 N6        30.01R
BLOOMINGTON    PTCLDY    43  25  49 NW12      30.01R
DECATUR        CLEAR     45  24  43 NW12      30.02R
PEORIA         CLEAR     46  21  37 NW9       30.01R
6HR MIN TEMP:  45; 6HR MAX TEMP:  50;

LACON*         CLEAR     42  23  47 N12       30.00R
LINCOLN*       CLEAR     46  26  47 NW5       30.02R
SPRINGFIELD    CLEAR     47  25  42 NW12      30.03R
6HR MIN TEMP:  43; 6HR MAX TEMP:  51;

TAYLORVILLE    CLEAR     43  30  61 NW9       30.02S
$$

ILZ033-039-045-046-055>057-062-063-270100-
EAST-CENTRAL ILLINOIS

CITY           SKY/WX    TMP DP  RH WIND       PRES   REMARKS
CHAMPAIGN      PTCLDY    42  28  57 NW12      30.00R
DANVILLE*      PTCLDY    40  29  64 NW10      29.97R
RANTOUL*       PTCLDY    44  29  57 NW9       29.99S
MATTOON        PTCLDY    44  31  60 NW12      30.00R
PARIS*         PTCLDY    43  32  65 NW9       30.01R
$$

ILZ079-100>102-270100-
SOUTHWEST ILLINOIS

CITY           SKY/WX    TMP DP  RH WIND       PRES   REMARKS
BELLEVILLE     CLEAR     47  31  54 NW9       30.03S
CAHOKIA*       CLEAR     49  27  42 N14       30.04S
SPARTA*        CLEAR     46  31  55 NW7       30.05R
$$

ILZ064>066-069>071-074>076-080>082-084>086-088>090-092>094-270100-
SOUTH-CENTRAL ILLINOIS

CITY           SKY/WX    TMP DP  RH WIND       PRES   REMARKS
CARBONDALE     CLEAR     45  32  60 N8        30.04R
6HR MIN TEMP:  40; 6HR MAX TEMP:  47;

CAIRO*         PTCLDY    45  35  67 N6        30.03R
EFFINGHAM*     PTCLDY    46  28  50 NW14G20   30.04R
MARION         CLEAR     46  32  57 NW7       30.04R
MT. VERNON     PTCLDY    46  28  49 N6        30.04R
CENTRALIA*     CLEAR     45  30  55 NW10G17   30.03R
SALEM*         CLEAR     47  32  56 NW9       30.04R
METROPOLIS*    PTCLDY    44  36  71 N9        30.01S
$$

ILZ067-068-072-073-078-083-087-091-270100-
SOUTHEAST ILLINOIS

CITY           SKY/WX    TMP DP  RH WIND       PRES   REMARKS
LAWRENCEVILLE  PTCLDY    44  33  65 NW10      30.01R
FLORA*         PTCLDY    46  33  61 NW8       30.03R
FAIRFIELD*     PTCLDY    45  33  61 NW3       30.02R
HARRISBURG*    CLEAR     44  33  65 NW7       30.04S
ROBINSON*      PTCLDY    44  34  69 NW9       30.02R
CARMI*         CLEAR     45  36  70 NW8       30.02R
$$

ABBREVIATIONS USED IN REMARKS
   TC - TEMPERATURE IN CELSIUS
  WCI - WIND CHILL INDEX
   HX - HEAT INDEX
  VSB - VISIBILITY
$$




USA.gov is the U.S. government's official web portal to all federal, state and local government web resources and services.